Regional Weather Roundup
Issued by NWS Upton, NY

Current Version | Previous Version | Graphics & Text | Print | Product List | Glossary Off
Versions: 1 2 3 4 5 6 7 8 9 10 11 12 13 14 15 16 17 18 19 20 21 22 23 24 25 26 27

000
ASUS41 KOKX 211408
RWROKX

REGIONAL WEATHER ROUNDUP
NATIONAL WEATHER SERVICE NEW YORK NY
900 AM EST SAT JAN 21 2017

NOTE: "FAIR" INDICATES FEW OR NO CLOUDS BELOW 12,000 FEET WITH NO
SIGNIFICANT WEATHER AND/OR OBSTRUCTIONS TO VISIBILITY.

NYZ071-072-176-178-NJZ106-104-211500-
NEW YORK CITY METRO AREA

CITY           SKY/WX    TMP DP  RH WIND       PRES   REMARKS
Central Park   PTSUNNY   43  41  93 CALM      29.90S
Wall St Helipt CLOUDY    44  41  89 W8        29.91R
LaGuardia APRT CLOUDY    46  42  86 SW5       29.88S
Kennedy INTL   CLOUDY    44  44 100 SW12      29.90S
Breezy Point     N/A     41 N/A N/A W8          N/A
Newark/Liberty CLOUDY    43  41  93 SW13      29.89S
Teterboro      MOSUNNY   44  41  89 SW7       29.88R
$$

NYZ177-179-078>081-211500-
LONG ISLAND NEW YORK

CITY           SKY/WX    TMP DP  RH WIND       PRES   REMARKS
Jones Beach      N/A     41 N/A N/A W9          N/A
Matinecock PT  NOT AVBL
Farmingdale    CLOUDY    44  42  93 W8        29.88F FOG
MacArthur/ISP  FOG       43  43 100 SW5       29.88F VSB 1
Shirley        CLOUDY    42  42 100 SW3       29.89S FOG
Westhampton    CLOUDY    43  41  93 SW3       29.90S FOG
Southampton    NOT AVBL
Bridgehampton  NOT AVBL
East Hampton   CLOUDY    42  41  94 W5        29.88F FOG
Montauk          N/A     43  42  97 W6        29.89F
$$

NYZ052-065-067-211500-
HUDSON VALLEY

CITY           SKY/WX    TMP DP  RH WIND       PRES   REMARKS
White Plains   CLOUDY    42  39  89 W5        29.86R FOG
Newburgh       PTSUNNY   39  39 100 W8        29.86S FOG     WCI  34
Montgomery     CLOUDY    40  38  93 SW7       29.85S FOG
Poughkeepsie   CLOUDY    42  39  89 CALM      29.85S
Albany         CLOUDY    40  36  86 S7        29.86R
$$

NJZ001-105-106-008-010-013-015-019>022-104-211500-
NEW JERSEY

CITY           SKY/WX    TMP DP  RH WIND       PRES   REMARKS
Newark/Liberty CLOUDY    43  41  93 SW13      29.89S
Teterboro      MOSUNNY   44  41  89 SW7       29.88R
Caldwell       CLOUDY    41  40  96 VRB5      29.90R FOG
Somerville     CLOUDY    42  40  92 VRB3      29.89R
Linden         CLOUDY    43  41  91 W9        29.90R
Sussex         CLOUDY    39  39 100 SW5       29.87R FOG
Andover          N/A     39  39 100 SW3       29.88R
Trenton        CLOUDY    43  43 100 W7        29.91R FOG
Millville      FOG       44  44 100 W5        29.92R VSB 1/2
Atlantic City  FOG       45  43  93 W6        29.92R VSB 1/2
Wrightstown    NOT AVBL
Toms River     CLOUDY    44  43  96 W5        29.92S FOG
Belmar         CLOUDY    43  42  97 W7        29.92R FOG
$$

PAZ047>061-062-071-211500-
EASTERN PENNSYLVANIA

CITY           SKY/WX    TMP DP  RH WIND       PRES   REMARKS
Philadelphia   FOG       44  43  96 SW8       29.92S VSB 1/4
Allentown      FOG       41  39  93 SW7       29.90R VSB 1/2
Scranton       FOG       40  40 100 SW5       29.87R VSB 1/2
$$

CTZ002-004>006-009-010-012-RIZ004-006-007-MAZ004-011-015-211500-
SOUTHERN NEW ENGLAND
 IN CT

CITY           SKY/WX    TMP DP  RH WIND       PRES   REMARKS
Bradley INTL   CLOUDY    40  39  97 SE5       29.85F FOG
Hartford       CLOUDY    40  39  97 S3        29.86F FOG
Danbury        CLOUDY    40  39  97 W6        29.87S FOG
Wtrbury/Oxford   N/A     39  36  87 CALM      29.86F FOG
Bridgeport     CLOUDY    43  40  89 SW6       29.88S FOG
Meriden        CLOUDY    41  39  93 S3        29.87S FOG
New Haven      CLOUDY    41  40  96 SW5       29.87F FOG
Chester        FOG       41  39  93 CALM      29.86S VSB 1/4
Groton         CLOUDY    42  40  92 SW8       29.86F FOG
Wilimantic     CLOUDY    42  40  92 CALM      29.86S FOG

 IN RI

CITY           SKY/WX    TMP DP  RH WIND       PRES   REMARKS
Providence     PTSUNNY   44  38  79 SW9       29.86F
Block Island   NOT AVBL
Westerly       CLOUDY    43  39  86 SW6       29.87F FOG
 IN MA

CITY           SKY/WX    TMP DP  RH WIND       PRES   REMARKS
Boston         CLOUDY    41  38  89 SW8       29.84F
Worcester      CLOUDY    36  35  96 W13       29.81F WCI  27
Westfield      CLOUDY    38  38 100 CALM      29.84F FOG
Provincetown   CLOUDY    41  40  96 S8        29.86F FOG
Nantucket      CLOUDY    43  41  93 S7        29.87F FOG
$$

ANZ330-335-338-340-345-350-353-355-211500-
COASTAL MARINE OBSERVATIONS


STATION/POSITION TIME  SKY/WX   TEMP    WIND        PRES    VSBY  WAVE
                                AIR SEA DIR/SP/G                  HT/PER
                 (UTC)          (F)     (DEG/KT/KT) (MB)    (MI)  (FT/S)
NY HARB ENTRANCE 1250            44 44  260/ 12/ 16 1012.3          3/11
20 S FIRE ISLAND 1350            44 45  270/ 12/ 14 1012.2          3/10
GREAT SOUTH BAY  NOT AVBL
23 SSW MONTAUK P 1250            45 47  250/ 12/ 14 1012.6          3/11
15 E BARNEGAT LI 1330               47                N/A           3/11
HUDSON CANYON    1250            51 51              1013.0          4/10
KINGS POINT      1342            43 39              1011.6
EXECUTION ROCKS  1345            43     210/  6/  6   N/A
CENTRAL LI SOUND 1330            41     240/  6/  6   N/A           0
EASTERN LI SOUND NOT AVBL
ROBBINS REEF     1348            43     260/ 12/ 13 1012.4
$$


>>>>>>>>>>>>>>>>>>>>>>>>>>>> KEY <<<<<<<<<<<<<<<<<<<<<<<<<<<
>                                                          <
>     SKY/WX - Sky Condition/Present Weather               <
>     TMP    - Temperature in Fahrenheit                   <
>     DP     - Dew Point in Fahrenheit                     <
>     RH     - Relative Humidity in Percent                <
>     WIND   - Direction (from) and Speed in MPH           <
>     PRES   - Mean Sea Level Pressure (inches of Hg)      <
>     WCI    - Wind Chill Index                            <
>     VSB    - VISIBILITY IN MILES                         <
>     HX     - HEAT INDEX                                  <
>     TC     - TEMPERATURE IN CELSIUS                      <
>     VRB    - VARIABLE WIND DIRECTION                     <
>                                                          <
>>>>>>>>>>>>>>>>>>>>>>>>>>>> KEY <<<<<<<<<<<<<<<<<<<<<<<<<<<




USA.gov is the U.S. government's official web portal to all federal, state and local government web resources and services.